星链-6116 (STARLINK-6116 )

导读

STARLINK-6116是美国太空探索技术公司SpaceX星链星座的卫星,于2023年6月12日发射入轨,星链项目旨在为全球提供覆盖广泛的低轨道卫星互联网服务,该卫星加入后,进一步扩充了星链星座的卫星规模,提升了星座全球网络服务的覆盖能力与服务容量。

Basic Information
目录编号:
56911
目录名称:
STARLINK-6116
国际标识:
2023-083AM
轨道中心:
EARTH
卫星名称:
星链-6116
卫星全名:
星链-6116 (STARLINK-6116 )
卫星状态:
在轨 (已飞行1180 天)
发射日期:
2023-06-12 UTC
国别 :
美国 (US)
星等 :
--
Orbit Information
数据来源 国际轨道数据
星历时间: 2026-09-04T10:02:42+0800
7小时前
查看轨道信息
半长轴: 6861.192km
偏心率: 0.0001082
轨道倾角: 43.002°
近地点辐角 263.527°
升交点赤经 143.009°
平近点角 96.545°
近地点: 482.312km
远地点: 483.798km
周期: 94.267分钟
每日圈数: 15.275781
Detailed Information
固有亮度:
5
最大亮度:
2.4
卫星平台:
Starlink v1.5
覆盖范围:
全球
运营商:
太空探索技术公司
运营商所在国:
美国
制造商(研发单位):
太空探索技术公司
制造商所在国:
美国
使用方式:
暂无
Satellite Introduction
星链(Starlink)计划是由太空探索技术公司(SpaceX)提出的一个巨型低轨卫星互联网星座项目,计划在2019年至2024年间在太空搭建由约1.2万颗卫星组成的“星链”网络,其中1584颗将部署在地球上空550千米处的近地轨道,并从2020年开始工作。该卫星仍在工作。
2D Orbit Map
3D Orbit Map
Orbit Altitude Analysis Chart
Orbit Inclination Analysis Chart
Orbit Comprehensive Analysis Chart
View Comprehensive Chart
Conjunction Data List
Event ID Objects TCA Miss Dist (km) Collision Risk Probability Collision Risk Index (CRI) Action
CDM_260905-111305-691106-302421
2026-09-05T
11:13:28+0000
0.268 km
中距离
4.497061E-4 高风险 0.88
CDM_260904-144305-691106-645821
2026-09-04T
14:43:49+0000
0.747 km
远距离
5.235479E-5 中风险 0.69
CDM_260904-020705-691106-652621
2026-09-04T
02:07:31+0000
1.185 km
极远距离
1.14961E-5 中风险 0.56
CDM_260904-003305-691106-652621
2026-09-04T
00:33:22+0000
1.519 km
极远距离
4.979645E-6 低风险 0.49
CDM_260905-093905-691106-302421
2026-09-05T
09:39:18+0000
1.730 km
极远距离
2.787759E-6 低风险 0.44
CDM_260904-130905-691106-645821
2026-09-04T
13:09:40+0000
2.022 km
极远距离
2.119179E-6 低风险 0.42
CDM_260904-122101-340305-691127
SL-3 R/B (13403)
2026-09-04T
12:21:05+0000
2.654 km
极远距离
1.489022E-6 低风险 0.38
CDM_260903-223305-304705-691121
2026-09-03T
22:33:42+0000
2.481 km
极远距离
1.473563E-6 低风险 0.38
CDM_260903-185305-691106-435621
2026-09-03T
18:53:51+0000
2.764 km
极远距离
1.3562E-6 低风险 0.38